Baltimore, MD

5:25 AM EST on January 20, 2018 (GMT -0500)
Baltimore-Washington International

Weather History for KBWI - June, 2013

Change the Weather History Date:

Sunday, June 9, 2013

  Actual Average Record
Temperature  
Mean Temperature 72 °F 71 °F  
Max Temperature 80 °F 81 °F 100 °F (2011)
Min Temperature 63 °F 60 °F 45 °F (1997)
Degree Days  
Heating Degree Days 0 1  
Month to date heating degree days 0 11  
Since 1 June heating degree days 0 11  
Since 1 July heating degree days 4486 4760  
Cooling Degree Days 7 6  
Month to date cooling degree days 60 49  
Year to date cooling degree days 191 133  
Since 1 June cooling degree days 60 49  
Growing Degree Days 21 (Base 50)    
Moisture  
Dew Point 62 °F    
Average Humidity 72    
Maximum Humidity 93    
Minimum Humidity 50    
Precipitation  
Precipitation T in 0.12 in 2.06 in (1881)
Month to date precipitation 3.11 1.12  
Year to date precipitation 16.97 18.15  
Snow  
Snow 0.00 in 0.00 in - ()
Month to date snowfall 0.0 0.0  
Since 1 July snowfall 8.0 20.1  
Snow Depth 0.00 in    
Sea Level Pressure  
Sea Level Pressure 30.14 in    
Wind  
Wind Speed 3 mph (ESE)    
Max Wind Speed 12 mph    
Max Gust Speed 14 mph    
Visibility 10 miles    
Events      
T = Trace of Precipitation, MM = Missing Value Source: NWS Daily Summary

Daily Weather History Graph

Daily Weather History Graph

Search for Another Location

Airport or City:

Trip Planner

Search our weather history database for the weather conditions in past years. The results will help you decide how hot, cold, wet, or windy it might be!

Date:

Astronomy

Jun. 09, 2013 Rise Set
Actual Time 5:40 AM EDT 8:32 PM EDT
Civil Twilight 5:08 AM EDT 9:04 PM EDT
Nautical Twilight 4:27 AM EDT 9:44 PM EDT
Astronomical Twilight 3:41 AM EDT 10:30 PM EDT
Moon 6:34 AM EDT (6/9) 9:17 PM EDT (6/9)
Length of Visible Light 15h 55m
Length of Day
14h 51m
New Moon, 1% of the Moon is Illuminated
Jun 9
New Moon
Jun 16
First Quarter
Jun 23
Full
Jun 30
Last Quarter
Jul 8
New

Hourly Weather History & Observations

Time (EDT) Temp. Dew Point Humidity Pressure Visibility Wind Dir Wind Speed Gust Speed Precip Events Conditions
12:54 AM 66.9 °F 64.0 °F 90% 30.10 in 9.0 mi WNW 3.5 mph - N/A   Mostly Cloudy
1:54 AM 69.1 °F 61.0 °F 75% 30.11 in 10.0 mi North 3.5 mph - N/A   Mostly Cloudy
2:54 AM 69.1 °F 61.0 °F 75% 30.10 in 10.0 mi NNE 3.5 mph - N/A   Overcast
3:54 AM 68.0 °F 60.1 °F 76% 30.10 in 10.0 mi Calm Calm - 0.00 in   Mostly Cloudy
4:54 AM 64.0 °F 61.0 °F 90% 30.12 in 10.0 mi Calm Calm - N/A   Scattered Clouds
5:54 AM 63.0 °F 60.1 °F 90% 30.13 in 8.0 mi Calm Calm - N/A   Mostly Cloudy
6:54 AM 64.9 °F 61.0 °F 87% 30.15 in 8.0 mi Calm Calm - N/A   Overcast
7:54 AM 71.1 °F 61.0 °F 70% 30.18 in 9.0 mi Calm Calm - N/A   Mostly Cloudy
8:54 AM 71.1 °F 61.0 °F 70% 30.20 in 10.0 mi Calm Calm - N/A   Overcast
9:54 AM 73.0 °F 61.0 °F 66% 30.19 in 10.0 mi Variable 3.5 mph - N/A   Overcast
10:54 AM 73.9 °F 55.9 °F 53% 30.19 in 10.0 mi ESE 9.2 mph - N/A   Overcast
11:54 AM 73.0 °F 55.9 °F 55% 30.19 in 10.0 mi SE 3.5 mph - N/A   Overcast
12:54 PM 75.9 °F 55.9 °F 50% 30.18 in 10.0 mi East 5.8 mph - N/A   Overcast
1:54 PM 78.1 °F 61.0 °F 56% 30.16 in 10.0 mi Variable 3.5 mph - N/A   Overcast
2:54 PM 79.0 °F 64.9 °F 62% 30.14 in 10.0 mi ENE 4.6 mph - N/A   Mostly Cloudy
3:54 PM 79.0 °F 64.9 °F 62% 30.12 in 10.0 mi ESE 8.1 mph - N/A   Mostly Cloudy
4:54 PM 79.0 °F 64.9 °F 62% 30.11 in 10.0 mi ESE 9.2 mph - N/A   Mostly Cloudy
5:54 PM 78.1 °F 64.0 °F 62% 30.10 in 10.0 mi SE 5.8 mph - N/A   Mostly Cloudy
6:54 PM 78.1 °F 66.0 °F 66% 30.11 in 10.0 mi SSE 3.5 mph - N/A   Mostly Cloudy
7:54 PM 75.9 °F 66.9 °F 74% 30.12 in 10.0 mi SE 3.5 mph - N/A   Mostly Cloudy
8:54 PM 75.0 °F 64.9 °F 71% 30.12 in 10.0 mi SE 3.5 mph - N/A   Mostly Cloudy
9:54 PM 73.9 °F 64.0 °F 71% 30.14 in 10.0 mi SE 3.5 mph - N/A   Overcast
10:54 PM 73.0 °F 64.9 °F 76% 30.13 in 10.0 mi Calm Calm - N/A   Overcast
11:54 PM 73.0 °F 64.9 °F 76% 30.11 in 10.0 mi ESE 3.5 mph - N/A   Overcast